CZ-6A DEB, 56664

Orbit data source: Space-Track

CZ-6A DEB, 56664 is space debris in SSO originally from a launch on Fri, 11 Nov 2022 UTC launched from the Taiyaun Space Center, China (TSC). Debris objects in space refer to the collection of defunct objects orbiting the Earth. Examples of debris include non-operational satellites, rocket bodies, and fragments generated from explosions, collisions, or faulty payload assembly.

Loading next visibility...
Identifier
56664, 2022-151AGQ
Orbit
SSO
Country
Flag of CNCN / PRC
Related business
Manufacturer
SAST
Mission
Spacecraft
Bus & Motor
Unknown
Mass
Unknown
Launch date (UTC)
2022-11-11 (3 years ago)
Launch vehicle
Unknown
Launch site
Taiyaun Space Center, China (TSC)
Object type
Payload
Rocket body
Debris
Shape & HBR
Unknown shape, 0.1 m
Radar Cross Section
Small (<0.1 m²)

Expand to show TLE details & history
Last TLE update: 1 day ago

TLE from 1 day ago
0 CZ-6A DEB
1 56664U 22151AGQ 26129.45137825  .00000362  00000-0  21416-3 0  9991
2 56664  98.8218 134.8822 0034606  71.0610 289.4308 14.13544025162009
Epoch: 2026-05-09T10:49Z
TLE epoch observation values (Epoch: 2026-05-09T10:49:59.080Z)
Latitude
-0.00008°
Longitude
105.11742°
Altitude
841.929 km
Speed
7.436 km/s
True Right ascension
08h 59m 31s
True Declination
0° 00' 00"
Sunlit
Object was in daylight at epoch
Visualization orbit readout
Latitude
Unknown
Longitude
Unknown
Altitude
Unknown
Speed
Unknown
Apparent Right ascension
Unknown
Apparent Declination
Unknown
Sunlit
N/A
Visualization observer readout
Local Sidereal Time
00:19:14
Azimuth
Unknown
Elevation
Unknown
Doppler factor
Unknown
Orbital elements
Apogee altitude
869.436 km
Perigee altitude
819.448 km
Semi-major axis
7,222.579 km
Eccentricity
0.00346
Inclination
98.8218°
RAAN
134.8822°
Arg. of periapsis
71.061°
True anomaly
289.05629°
Mean anomaly
289.4308°
Eccentric anomaly
289.2436°
Mean motion
3.53594 °/min
Orbital period
101.81 mins
BSTAR
0.00021416
Loading maneuver chart data...
Computing Atmospheric mass density...
Loading historical data...
Loading historical data...
Loading historical data...
Loading historical data...
Loading historical data...
Loading historical data...
Loading historical data...

Documentation

Showing up to 5 results
|